| time (UTC) | temp F | wind direction | speed knots | gust knots | rain 1hr in | rain 24hr in | rain mn in | humidity % | barometer mb |
| 20260507183118 | 57 | 57 | 0.0 | 1.7 | 0.00 | 0.00 | 0.00 | 63 | 1015.5 |
| 20260507181619 | 57 | 64 | 0.0 | 1.7 | 0.00 | 0.00 | 0.00 | 62 | 1015.5 |
| 20260507180124 | 58 | 52 | 0.0 | 2.6 | 0.00 | 0.00 | 0.00 | 62 | 1015.5 |
| 20260507174618 | 58 | 49 | 0.0 | 1.7 | 0.00 | 0.00 | 0.00 | 62 | 1015.5 |
| 20260507173120 | 58 | 50 | 0.0 | 2.6 | 0.00 | 0.00 | 0.00 | 61 | 1015.5 |
| 20260507171612 | 58 | 54 | 0.0 | 1.7 | 0.00 | 0.00 | 0.00 | 61 | 1015.5 |
| 20260507170121 | 58 | 54 | 0.0 | 2.6 | 0.00 | 0.00 | 0.00 | 59 | 1015.5 |
| 20260507164608 | 58 | 18 | 0.0 | 4.3 | 0.00 | 0.00 | 0.00 | 62 | 1015.4 |
| 20260507163112 | 58 | 3 | 1.7 | 5.2 | 0.00 | 0.00 | 0.00 | 61 | 1015.4 |
| 20260507161614 | 58 | 18 | 1.7 | 6.1 | 0.00 | 0.00 | 0.00 | 61 | 1015.5 |
| 20260507154620 | 58 | 9 | 2.6 | 5.2 | 0.00 | 0.00 | 0.00 | 59 | 1015.5 |
| 20260507153124 | 58 | 334 | 2.6 | 5.2 | 0.00 | 0.00 | 0.00 | 59 | 1015.5 |
| 20260507151621 | 59 | 340 | 2.6 | 6.1 | 0.00 | 0.00 | 0.00 | 57 | 1015.5 |
| 20260507150130 | 59 | 334 | 2.6 | 6.1 | 0.00 | 0.00 | 0.00 | 56 | 1015.4 |
| 20260507144604 | 60 | 29 | 0.9 | 3.5 | 0.00 | 0.00 | 0.00 | 54 | 1015.4 |
| 20260507143055 | 61 | 23 | 0.9 | 2.6 | 0.00 | 0.00 | 0.00 | 55 | 1015.3 |
| 20260507141515 | 61 | 138 | 0.0 | 5.2 | 0.00 | 0.00 | 0.00 | 56 | 1015.4 |
| 20260507140005 | 61 | 68 | 0.9 | 3.5 | 0.00 | 0.00 | 0.00 | 54 | 1015.4 |
| 20260507134539 | 61 | 136 | 0.9 | 4.3 | 0.00 | 0.00 | 0.00 | 54 | 1015.6 |
| 20260507133005 | 61 | 115 | 0.0 | 3.5 | 0.00 | 0.00 | 0.00 | 54 | 1015.6 |
| 20260507131547 | 61 | 120 | 0.0 | 4.3 | 0.00 | 0.00 | 0.00 | 52 | 1015.5 |
| 20260507130002 | 61 | 99 | 0.9 | 3.5 | 0.00 | 0.00 | 0.00 | 51 | 1015.6 |
| 20260507124506 | 61 | 144 | 1.7 | 5.2 | 0.00 | 0.00 | 0.00 | 52 | 1015.6 |
| 20260507123000 | 60 | 94 | 0.0 | 6.1 | 0.00 | 0.00 | 0.00 | 52 | 1015.5 |
| 20260507121540 | 60 | 115 | 2.6 | 6.1 | 0.00 | 0.00 | 0.00 | 54 | 1015.5 |
| 20260507120006 | 59 | 73 | 0.9 | 4.3 | 0.00 | 0.00 | 0.00 | 57 | 1015.4 |
| 20260507114538 | 59 | 355 | 2.6 | 5.2 | 0.00 | 0.00 | 0.00 | 58 | 1015.3 |
| 20260507113007 | 59 | 49 | 0.9 | 5.2 | 0.00 | 0.00 | 0.00 | 57 | 1015.5 |
| 20260507111510 | 60 | 91 | 0.9 | 7.0 | 0.00 | 0.00 | 0.00 | 52 | 1015.4 |
| 20260507110134 | 60 | 71 | 0.9 | 4.3 | 0.00 | 0.00 | 0.00 | 57 | 1015.5 |
| 20260507104503 | 60 | 73 | 1.7 | 5.2 | 0.00 | 0.00 | 0.00 | 59 | 1015.5 |
| 20260507103130 | 59 | 42 | 1.7 | 6.1 | 0.00 | 0.00 | 0.00 | 55 | 1015.6 |
| 20260507101627 | 60 | 6 | 1.7 | 6.1 | 0.00 | 0.00 | 0.00 | 58 | 1015.7 |
| 20260507094548 | 58 | 330 | 5.2 | 9.6 | 0.00 | 0.00 | 0.00 | 60 | 1015.5 |
| 20260507093101 | 58 | 47 | 2.6 | 5.2 | 0.00 | 0.00 | 0.00 | 62 | 1015.5 |
| 20260507091553 | 57 | 354 | 2.6 | 6.1 | 0.00 | 0.00 | 0.00 | 65 | 1015.5 |
| 20260507090010 | 55 | 324 | 5.2 | 7.8 | 0.00 | 0.00 | 0.00 | 67 | 1015.5 |
| 20260507084549 | 55 | 327 | 3.5 | 7.0 | 0.00 | 0.00 | 0.00 | 66 | 1015.4 |
| 20260507083012 | 54 | 36 | 0.9 | 5.2 | 0.00 | 0.00 | 0.00 | 68 | 1015.4 |
| 20260507081508 | 53 | 319 | 1.7 | 6.1 | 0.00 | 0.00 | 0.00 | 69 | 1015.4 |
| 20260507080131 | 53 | 320 | 2.6 | 5.2 | 0.00 | 0.00 | 0.00 | 71 | 1015.3 |
| 20260507074632 | 52 | 3 | 1.7 | 4.3 | 0.00 | 0.00 | 0.00 | 73 | 1015.3 |
| 20260507073121 | 52 | 333 | 0.0 | 2.6 | 0.00 | 0.00 | 0.00 | 74 | 1015.1 |
| 20260507071620 | 51 | 23 | 0.9 | 4.3 | 0.00 | 0.00 | 0.00 | 76 | 1015.1 |
| 20260507070124 | 51 | 316 | 0.9 | 4.3 | 0.00 | 0.00 | 0.00 | 77 | 1015.1 |
| 20260507064612 | 50 | 74 | 2.6 | 5.2 | 0.00 | 0.00 | 0.00 | 78 | 1015.0 |
| 20260507063113 | 50 | 41 | 1.7 | 4.3 | 0.00 | 0.00 | 0.00 | 79 | 1014.9 |
| 20260507061603 | 49 | 336 | 1.7 | 3.5 | 0.00 | 0.00 | 0.00 | 79 | 1014.8 |
| 20260507060114 | 49 | 343 | 1.7 | 2.6 | 0.00 | 0.00 | 0.00 | 80 | 1014.7 |
| 20260507054601 | 49 | 329 | 0.9 | 2.6 | 0.00 | 0.00 | 0.00 | 80 | 1014.5 |
| 20260507053106 | 49 | 323 | 0.9 | 1.7 | 0.00 | 0.00 | 0.00 | 80 | 1014.4 |
| 20260507051602 | 49 | 314 | 0.9 | 1.7 | 0.00 | 0.00 | 0.00 | 80 | 1014.4 |
| 20260507050022 | 48 | 295 | 0.9 | 1.7 | 0.00 | 0.00 | 0.00 | 80 | 1014.2 |
| 20260507044626 | 48 | 287 | 0.0 | 1.7 | 0.00 | 0.01 | 0.00 | 80 | 1014.0 |
| 20260507043133 | 48 | 285 | 0.0 | 1.7 | 0.00 | 0.01 | 0.00 | 79 | 1013.9 |
| 20260507041624 | 48 | 285 | 0.0 | 1.7 | 0.00 | 0.01 | 0.00 | 79 | 1013.8 |
| 20260507034557 | 49 | 305 | 0.0 | 1.7 | 0.00 | 0.01 | 0.00 | 78 | 1013.5 |
| 20260507033102 | 49 | 327 | 0.0 | 0.9 | 0.00 | 0.01 | 0.00 | 77 | 1013.5 |
| 20260507031608 | 49 | 327 | 0.0 | 1.7 | 0.00 | 0.01 | 0.00 | 77 | 1013.4 |
| 20260507030111 | 49 | 327 | 0.0 | 1.7 | 0.00 | 0.01 | 0.00 | 76 | 1013.4 |
| 20260507024632 | 49 | 327 | 0.0 | 1.7 | 0.00 | 0.02 | 0.00 | 77 | 1013.3 |
| 20260507023116 | 49 | 327 | 0.0 | 1.7 | 0.00 | 0.02 | 0.00 | 77 | 1013.3 |
| 20260507021613 | 49 | 327 | 0.0 | 0.0 | 0.00 | 0.02 | 0.00 | 76 | 1013.2 |
| 20260507020121 | 49 | 327 | 0.0 | 1.7 | 0.00 | 0.02 | 0.00 | 75 | 1013.0 |
| 20260507014616 | 49 | 327 | 0.0 | 1.7 | 0.00 | 0.02 | 0.00 | 74 | 1012.9 |
| 20260507013127 | 49 | 327 | 0.0 | 0.0 | 0.00 | 0.02 | 0.00 | 73 | 1012.9 |
| 20260507011536 | 49 | 327 | 0.0 | 0.0 | 0.00 | 0.02 | 0.00 | 73 | 1012.9 |
| 20260507010001 | 49 | 327 | 0.0 | 0.0 | 0.00 | 0.02 | 0.00 | 73 | 1012.9 |
| 20260507004543 | 49 | 327 | 0.0 | 1.7 | 0.00 | 0.02 | 0.00 | 73 | 1012.9 |
| 20260507003006 | 49 | 327 | 0.0 | 1.7 | 0.00 | 0.02 | 0.00 | 73 | 1012.8 |
| 20260507001502 | 49 | 332 | 0.0 | 1.7 | 0.00 | 0.02 | 0.00 | 73 | 1012.7 |
| 20260507000137 | 49 | 323 | 0.0 | 1.7 | 0.00 | 0.02 | 0.00 | 74 | 1012.8 |
| 20260506234509 | 49 | 323 | 0.0 | 1.7 | 0.00 | 0.02 | 0.00 | 74 | 1012.8 |
| 20260506233123 | 50 | 329 | 0.0 | 1.7 | 0.00 | 0.02 | 0.00 | 74 | 1012.6 |
| 20260506231514 | 50 | 324 | 0.0 | 1.7 | 0.00 | 0.02 | 0.00 | 74 | 1012.6 |
| 20260506230134 | 50 | 325 | 0.9 | 1.7 | 0.00 | 0.02 | 0.00 | 74 | 1012.5 |
| 20260506224508 | 50 | 343 | 0.0 | 1.7 | 0.00 | 0.04 | 0.00 | 74 | 1012.3 |
| 20260506223055 | 50 | 339 | 0.0 | 2.6 | 0.00 | 0.04 | 0.00 | 73 | 1012.2 |
| 20260506221518 | 50 | 335 | 0.9 | 1.7 | 0.00 | 0.04 | 0.00 | 73 | 1012.2 |
| 20260506214559 | 50 | 347 | 0.9 | 1.7 | 0.00 | 0.06 | 0.04 | 72 | 1012.1 |
| 20260506213142 | 50 | 355 | 0.9 | 2.6 | 0.00 | 0.06 | 0.04 | 71 | 1012.0 |
| 20260506211632 | 51 | 360 | 0.9 | 3.5 | 0.00 | 0.06 | 0.04 | 70 | 1011.9 |
| 20260506210103 | 51 | 339 | 1.7 | 3.5 | 0.00 | 0.06 | 0.04 | 69 | 1011.8 |
| 20260506204519 | 51 | 55 | 1.7 | 3.5 | 0.00 | 0.07 | 0.04 | 69 | 1011.7 |
| 20260506203007 | 51 | 29 | 1.7 | 4.3 | 0.00 | 0.07 | 0.04 | 68 | 1011.5 |
| 20260506201553 | 51 | 39 | 2.6 | 6.1 | 0.00 | 0.07 | 0.04 | 69 | 1011.4 |
| 20260506200132 | 51 | 45 | 0.9 | 3.5 | 0.00 | 0.07 | 0.04 | 70 | 1011.3 |
| 20260506194629 | 51 | 46 | 0.9 | 3.5 | 0.00 | 0.07 | 0.04 | 70 | 1011.3 |
| 20260506193124 | 51 | 46 | 1.7 | 7.8 | 0.00 | 0.07 | 0.04 | 70 | 1011.2 |
| 20260506191621 | 51 | 89 | 2.6 | 4.3 | 0.00 | 0.07 | 0.04 | 69 | 1011.0 |
| 20260506190120 | 51 | 347 | 2.6 | 9.6 | 0.00 | 0.07 | 0.04 | 68 | 1010.8 |
| 20260506184609 | 52 | 335 | 3.5 | 7.8 | 0.00 | 0.08 | 0.04 | 66 | 1010.6 |